Temp
-9 -9 -9 -9 -9 -9 -9 -9 -9 -9 -9 -9 -9 -9 -9 -9 -9 -8 -8 -8 -8 -8 -8 -8 -8 -9 -9 -9 -9 -9 -9 -9 -9 -10 -10 -10 -10 -10 -10 -10 -11 -10
-9 -9 -9 -9 -9 -9 -9 -9 -9 -9 -9 -9 -9 -9 -9 -9 -9 -9 -9 -9 -9 -9 -9 -9 -9 -9 -9 -9 -9 -9 -9 -9 -9 -10 -10 -10 -10 -10 -10 -10 -10 -10
-9 -9 -9 -9 -9 -9 -9 -9 -9 -9 -9 -9 -9 -9 -9 -9 -9 -9 -9 -9 -9 -9 -9 -9 -9 -9 -9 -9 -9 -9 -9 -9 -9 -10 -10 -10 -10 -10 -10 -10 -10 -10
-10 -10 -9 -9 -9 -9 -9 -9 -9 -9 -9 -9 -9 -9 -9 -9 -9 -9 -9 -9 -9 -9 -10 -10 -10 -10 -10 -9 -9 -9 -9 -9 -9 -10 -10 -10 -10 -10 -10 -10 -10 -10
-10 -10 -10 -10 -10 -10 -10 -10 -9 -9 -9 -9 -9 -9 -9 -9 -9 -9 -9 -9 -9 -9 -10 -10 -10 -10 -10 -10 -10 -10 -10 -10 -10 -10 -10 -10 -10 -10 -10 -10 -10 -10
-10 -10 -10 -10 -10 -10 -10 -10 -10 -10 -10 -10 -9 -9 -9 -9 -9 -9 -9 -9 -9 -10 -10 -10 -10 -10 -10 -10 -10 -10 -10 -10 -10 -10 -10 -10 -10 -10 -10 -10 -10 -11
-10 -10 -10 -10 -10 -10 -10 -10 -10 -10 -10 -10 -10 -10 -10 -10 -9 -9 -9 -9 -10 -10 -10 -11 -11 -11 -11 -11 -11 -11 -11 -11 -11 -11 -11 -11 -11 -11 -11 -11 -11 -11
-10 -11 -11 -11 -11 -11 -11 -11 -11 -11 -11 -11 -10 -10 -10 -10 -10 -10 -10 -10 -10 -10 -10 -11 -11 -11 -11 -11 -11 -11 -11 -11 -11 -11 -11 -11 -11 -11 -11 -11 -11 -11
-11 -11 -11 -11 -11 -11 -11 -11 -11 -11 -11 -11 -11 -11 -11 -11 -10 -10 -10 -10 -10 -10 -10 -11 -11 -11 -12 -12 -12 -12 -12 -11 -11 -11 -11 -11 -11 -11 -11 -11 -11 -11
-11 -11 -12 -12 -12 -12 -12 -12 -12 -12 -12 -12 -12 -11 -11 -11 -11 -11 -11 -11 -11 -11 -11 -11 -11 -11 -12 -12 -12 -12 -12 -12 -12 -12 -12 -12 -12 -12 -12 -12 -11 -11
-12 -12 -12 -12 -12 -12 -12 -12 -12 -12 -12 -12 -12 -12 -12 -12 -12 -11 -11 -11 -11 -11 -11 -11 -11 -11 -12 -12 -12 -12 -12 -12 -12 -12 -12 -12 -12 -12 -12 -12 -12 -11
-13 -13 -13 -13 -13 -13 -13 -13 -13 -13 -13 -13 -13 -12 -12 -12 -12 -12 -12 -12 -12 -12 -12 -12 -12 -12 -12 -12 -12 -12 -12 -12 -12 -12 -12 -12 -12 -12 -12 -12 -12 -11
-14 -14 -14 -14 -13 -13 -13 -13 -13 -13 -13 -13 -13 -13 -13 -13 -13 -12 -12 -12 -12 -12 -12 -12 -12 -12 -12 -12 -12 -12 -12 -12 -12 -12 -12 -12 -12 -12 -12 -12 -12 -12
-14 -14 -14 -14 -14 -14 -14 -14 -13 -13 -13 -13 -13 -13 -13 -13 -13 -13 -13 -13 -12 -12 -12 -12 -12 -12 -12 -12 -12 -12 -12 -12 -12 -12 -12 -12 -12 -12 -12 -12 -12 -12
-15 -15 -15 -15 -14 -14 -14 -14 -14 -14 -14 -13 -13 -13 -13 -13 -13 -13 -13 -13 -13 -13 -13 -13 -13 -12 -12 -12 -12 -12 -12 -12 -12 -12 -12 -12 -12 -12 -12 -12 -12 -12
-15 -15 -15 -15 -15 -14 -14 -14 -14 -14 -14 -14 -14 -14 -13 -13 -13 -13 -13 -13 -13 -13 -13 -13 -13 -12 -12 -13 -12 -12 -12 -12 -12 -12 -12 -12 -12 -12 -12 -12 -12 -12
-15 -15 -15 -14 -14 -14 -14 -14 -14 -14 -14 -14 -14 -14 -14 -14 -13 -13 -13 -13 -13 -13 -13 -13 -12 -12 -12 -12 -12 -12 -12 -12 -12 -12 -12 -12 -12 -12 -12 -12 -12 -12
-15 -15 -15 -14 -14 -14 -14 -14 -14 -14 -14 -14 -14 -14 -14 -14 -14 -13 -13 -13 -13 -13 -13 -13 -13 -13 -13 -13 -13 -13 -13 -13 -12 -12 -12 -12 -12 -12 -12 -12 -12 -12
-15 -15 -15 -14 -14 -14 -14 -14 -14 -14 -14 -14 -14 -13 -13 -13 -13 -13 -13 -13 -13 -13 -13 -13 -13 -13 -13 -13 -13 -13 -13 -13 -13 -13 -13 -12 -12 -12 -12 -12 -13 -13
-15 -15 -15 -14 -14 -14 -14 -14 -14 -14 -14 -14 -14 -14 -14 -13 -13 -13 -13 -13 -14 -13 -13 -13 -13 -13 -13 -13 -13 -13 -13 -13 -13 -13 -13 -13 -13 -13 -13 -13 -13 -13
-16 -16 -15 -15 -15 -15 -14 -14 -14 -14 -14 -14 -14 -14 -14 -14 -14 -14 -14 -14 -14 -14 -14 -13 -13 -14 -14 -14 -13 -13 -13 -13 -13 -13 -13 -13 -13 -13 -13 -14 -14 -14
-16 -16 -16 -16 -15 -15 -15 -15 -15 -14 -14 -14 -14 -14 -14 -14 -14 -14 -14 -14 -14 -14 -14 -14 -14 -14 -14 -14 -14 -14 -14 -14 -14 -14 -14 -13 -13 -13 -13 -14 -14 -14
-16 -16 -16 -16 -16 -16 -16 -16 -15 -15 -15 -15 -15 -15 -15 -14 -14 -14 -14 -14 -14 -15 -15 -14 -14 -15 -15 -15 -15 -15 -15 -14 -14 -14 -14 -14 -14 -14 -14 -14 -14 -14
-17 -16 -16 -16 -16 -16 -16 -16 -16 -16 -16 -15 -15 -15 -15 -15 -15 -15 -15 -15 -15 -15 -15 -15 -15 -15 -15 -15 -15 -15 -15 -15 -15 -15 -15 -14 -14 -14 -14 -15 -15 -15
-17 -17 -16 -16 -16 -16 -16 -16 -16 -16 -16 -16 -15 -15 -15 -15 -16 -16 -16 -16 -16 -16 -16 -16 -16 -16 -16 -16 -16 -16 -16 -15 -15 -15 -15 -15 -15 -15 -15 -15 -15 -15
-18 -17 -17 -17 -17 -16 -16 -16 -16 -16 -16 -16 -16 -16 -16 -16 -16 -16 -16 -16 -16 -16 -16 -16 -16 -16 -16 -16 -16 -16 -16 -16 -16 -15 -15 -15 -15 -15 -15 -15 -15 -15
Height
5803 5803 5803 5803 5803 5803 5803 5803 5803 5804 5804 5804 5803 5803 5802 5801 5799 5798 5797 5796 5795 5794 5793 5792 5791 5791 5790 5789 5787 5787 5786 5785 5784 5783 5782 5781 5780 5778 5777 5776 5774 5772
5796 5796 5796 5796 5796 5796 5796 5796 5796 5797 5797 5797 5797 5797 5796 5795 5794 5793 5792 5791 5790 5789 5788 5787 5786 5785 5784 5783 5782 5781 5781 5780 5779 5778 5777 5776 5775 5773 5772 5770 5768 5766
5789 5789 5790 5790 5790 5789 5789 5789 5789 5789 5790 5790 5790 5789 5789 5789 5788 5788 5787 5786 5785 5784 5783 5781 5780 5779 5778 5778 5777 5776 5775 5774 5773 5772 5771 5771 5769 5768 5767 5765 5763 5761
5782 5782 5783 5783 5783 5783 5782 5782 5782 5782 5782 5782 5782 5782 5782 5782 5781 5781 5780 5780 5779 5778 5777 5776 5775 5774 5772 5771 5770 5770 5769 5768 5767 5766 5766 5765 5764 5763 5762 5760 5758 5757
5775 5775 5775 5775 5776 5776 5775 5775 5775 5774 5774 5775 5774 5774 5774 5774 5774 5773 5773 5772 5772 5771 5770 5769 5768 5767 5766 5765 5764 5764 5763 5762 5761 5760 5759 5760 5759 5758 5756 5755 5753 5752
5767 5767 5768 5768 5768 5768 5768 5768 5767 5767 5767 5767 5767 5767 5766 5766 5766 5765 5765 5764 5764 5763 5763 5762 5761 5761 5760 5759 5758 5758 5757 5756 5755 5754 5753 5753 5752 5751 5750 5749 5748 5746
5759 5760 5760 5760 5760 5760 5760 5760 5760 5759 5759 5759 5759 5759 5759 5758 5758 5757 5757 5756 5756 5756 5755 5755 5754 5754 5753 5752 5752 5751 5751 5750 5749 5748 5747 5747 5745 5744 5743 5742 5741 5740
5752 5751 5751 5752 5752 5751 5752 5752 5752 5752 5751 5751 5752 5751 5751 5751 5750 5750 5749 5749 5748 5748 5748 5747 5747 5746 5745 5745 5745 5744 5744 5743 5742 5741 5741 5740 5739 5738 5736 5734 5733 5733
5744 5743 5743 5743 5743 5743 5744 5743 5743 5743 5743 5744 5744 5743 5743 5743 5743 5742 5742 5741 5741 5741 5740 5739 5739 5738 5737 5737 5737 5737 5736 5736 5735 5734 5734 5733 5732 5731 5729 5727 5726 5726
5736 5735 5735 5735 5735 5735 5735 5735 5735 5735 5735 5735 5736 5735 5735 5735 5735 5735 5734 5734 5733 5733 5732 5732 5731 5730 5729 5729 5729 5728 5728 5728 5727 5726 5726 5725 5724 5723 5721 5719 5718 5718
5727 5728 5728 5728 5728 5728 5727 5727 5727 5727 5727 5727 5727 5727 5727 5727 5727 5727 5726 5726 5726 5725 5725 5724 5723 5722 5722 5721 5721 5720 5720 5719 5719 5718 5717 5716 5715 5714 5712 5711 5710 5710
5720 5720 5721 5721 5721 5720 5720 5720 5719 5719 5719 5719 5719 5719 5719 5719 5719 5718 5718 5718 5718 5718 5717 5717 5716 5715 5714 5714 5713 5712 5712 5711 5710 5709 5708 5707 5707 5706 5704 5703 5702 5702
5713 5713 5713 5714 5714 5714 5714 5713 5713 5712 5712 5712 5711 5712 5712 5711 5711 5711 5710 5711 5711 5710 5710 5709 5708 5708 5707 5706 5705 5704 5703 5702 5701 5701 5700 5700 5699 5698 5697 5696 5695 5694
5707 5707 5707 5707 5707 5708 5707 5707 5707 5706 5706 5705 5705 5704 5704 5703 5703 5703 5703 5703 5703 5702 5702 5701 5701 5701 5699 5698 5697 5695 5694 5693 5693 5692 5692 5692 5692 5691 5690 5689 5688 5687
5700 5700 5701 5701 5701 5701 5700 5700 5700 5700 5699 5699 5698 5697 5696 5695 5695 5695 5695 5695 5695 5695 5695 5694 5694 5694 5692 5690 5689 5688 5686 5685 5685 5684 5684 5684 5684 5683 5683 5682 5681 5679
5693 5693 5694 5694 5693 5693 5692 5692 5693 5693 5692 5692 5691 5690 5689 5688 5688 5688 5688 5688 5687 5687 5687 5687 5687 5686 5684 5682 5681 5680 5678 5677 5677 5677 5676 5676 5676 5676 5675 5674 5673 5672
5686 5686 5686 5685 5685 5685 5684 5684 5684 5684 5684 5683 5683 5683 5682 5681 5682 5681 5681 5680 5680 5680 5680 5680 5680 5678 5676 5674 5673 5671 5670 5669 5669 5669 5668 5668 5668 5668 5667 5666 5665 5664
5678 5679 5678 5677 5677 5676 5676 5676 5675 5675 5674 5674 5674 5674 5674 5674 5674 5673 5672 5672 5671 5671 5672 5672 5672 5670 5668 5666 5664 5663 5661 5661 5661 5660 5660 5660 5660 5659 5658 5657 5656 5655
5671 5672 5671 5670 5669 5668 5668 5667 5666 5666 5665 5664 5664 5664 5665 5665 5664 5664 5664 5662 5661 5662 5662 5663 5663 5661 5658 5656 5655 5655 5653 5652 5652 5652 5652 5652 5651 5650 5649 5648 5647 5646
5663 5663 5663 5662 5661 5660 5659 5658 5657 5656 5655 5654 5654 5654 5654 5654 5654 5653 5654 5653 5652 5652 5652 5653 5653 5650 5647 5645 5645 5644 5643 5642 5643 5643 5643 5643 5643 5642 5640 5640 5639 5637
5652 5653 5653 5652 5651 5650 5650 5649 5647 5647 5646 5645 5645 5645 5644 5643 5642 5642 5642 5642 5641 5641 5641 5643 5642 5638 5635 5634 5634 5632 5631 5631 5632 5633 5633 5634 5634 5633 5631 5631 5630 5628
5642 5642 5642 5641 5641 5639 5638 5637 5637 5636 5636 5635 5635 5635 5633 5633 5632 5631 5631 5630 5630 5629 5630 5632 5631 5627 5624 5623 5622 5620 5619 5618 5619 5620 5621 5623 5624 5623 5622 5622 5621 5619
5630 5631 5631 5631 5630 5629 5628 5626 5625 5625 5624 5624 5624 5624 5623 5622 5621 5620 5619 5618 5618 5617 5617 5619 5620 5616 5613 5611 5610 5609 5607 5607 5606 5607 5609 5611 5613 5612 5611 5611 5611 5610
5617 5618 5619 5619 5619 5618 5617 5616 5614 5613 5613 5612 5613 5613 5612 5611 5610 5610 5609 5607 5606 5605 5604 5605 5607 5605 5602 5600 5599 5597 5596 5596 5595 5595 5597 5599 5600 5600 5600 5600 5601 5600
5605 5605 5605 5606 5606 5606 5605 5604 5603 5602 5602 5601 5601 5601 5601 5600 5599 5599 5599 5597 5596 5595 5594 5593 5594 5593 5590 5589 5587 5586 5585 5585 5585 5585 5587 5588 5588 5588 5589 5590 5590 5590
5591 5591 5591 5592 5592 5593 5592 5591 5590 5590 5589 5589 5589 5589 5589 5589 5588 5588 5588 5587 5585 5584 5584 5582 5582 5581 5579 5577 5577 5575 5574 5574 5575 5575 5576 5577 5576 5577 5579 5580 5579 5579
Wind_Speed
46 46 46 46 46 45 45 45 44 43 43 42 42 42 42 43 43 43 43 43 44 44 44 44 44 44 44 45 45 45 45 45 45 43 43 43 43 42 42 41 42 43
50 49 49 48 48 48 48 48 47 46 45 45 45 45 45 45 45 45 45 45 45 45 46 47 47 46 46 46 47 47 47 47 46 45 45 45 45 44 43 42 42 43
53 52 52 51 51 51 51 51 50 49 48 48 48 48 48 48 47 47 47 47 47 47 48 49 49 49 49 49 49 49 49 48 48 47 46 46 46 46 44 44 44 44
54 54 54 54 54 53 54 53 53 53 52 52 52 51 51 50 50 49 49 49 49 49 49 50 50 51 51 51 51 51 51 51 50 49 49 48 47 47 45 45 45 46
56 56 56 56 56 56 56 56 55 56 55 55 55 54 54 53 53 52 52 51 51 51 51 51 51 52 52 52 53 52 52 52 52 51 51 50 49 48 46 46 46 46
57 57 57 57 57 57 57 57 58 58 58 57 57 57 56 56 55 55 54 54 54 53 53 53 53 53 53 53 53 53 53 52 52 52 52 51 50 48 47 46 45 46
59 58 58 58 58 58 58 58 59 59 59 59 58 58 58 58 58 57 57 57 56 55 55 54 54 53 53 53 53 52 52 52 51 51 51 50 49 48 47 47 46 46
61 60 60 59 59 58 58 58 58 59 59 59 59 59 59 59 59 59 59 59 58 58 57 56 55 55 54 54 53 53 52 52 51 51 50 49 49 48 48 48 47 47
63 63 62 60 59 59 58 58 58 58 59 59 59 59 59 59 59 59 60 60 60 60 59 58 58 57 56 56 55 55 54 53 52 52 51 50 50 50 50 50 50 50
62 62 61 60 59 58 58 58 58 58 58 59 59 59 60 60 60 60 61 61 61 61 61 61 60 59 59 58 58 57 56 56 56 55 54 54 53 53 53 54 54 54
58 58 58 57 57 57 57 57 57 57 58 58 59 59 60 60 60 60 61 61 61 62 62 62 61 61 61 60 60 59 59 58 58 58 58 58 57 57 57 57 57 57
55 55 55 54 55 55 55 56 56 57 57 57 58 58 59 59 59 60 61 61 61 62 62 62 62 62 62 61 61 61 60 60 60 60 59 59 60 60 60 60 60 59
53 53 53 53 53 53 53 54 54 55 56 57 57 58 58 58 58 59 60 60 60 61 61 61 61 61 60 60 59 59 59 60 60 60 60 60 60 60 60 60 59 59
52 52 52 52 52 52 52 52 52 53 53 54 55 56 56 57 57 58 58 58 58 58 58 58 58 57 56 55 55 55 56 57 58 59 59 59 59 58 58 57 57 56
55 54 54 53 53 52 52 52 52 52 52 52 53 54 55 55 56 56 56 56 55 55 55 55 54 53 53 53 53 53 54 55 55 56 56 56 56 56 56 55 55 55
58 58 57 57 57 57 57 56 56 55 54 54 55 55 55 56 55 55 55 55 54 54 53 53 52 51 52 53 54 54 55 55 55 54 54 54 54 54 54 54 53 54
62 61 61 61 61 61 62 62 61 60 59 59 59 59 59 59 59 59 58 58 58 57 56 55 54 54 55 55 56 57 58 57 57 56 56 56 56 56 56 56 56 56
65 65 66 67 67 66 66 66 66 65 65 64 63 63 63 63 63 64 64 64 63 62 61 61 60 60 61 61 61 62 62 62 62 61 60 60 61 61 61 60 61 61
70 70 71 71 71 71 70 69 69 69 70 70 70 69 68 68 68 68 68 68 69 68 67 66 66 66 67 67 67 67 67 67 67 66 65 65 65 65 65 65 65 65
72 73 74 75 75 75 74 74 74 74 74 75 75 75 74 74 73 72 72 72 72 72 72 71 70 71 73 73 73 73 74 73 72 71 70 69 69 68 68 68 68 68
73 74 75 77 78 79 79 80 80 80 80 80 79 78 78 78 78 77 76 76 76 75 75 75 74 76 77 77 77 78 78 78 77 76 75 74 73 72 71 70 70 71
77 77 77 78 79 80 81 81 82 82 82 83 82 82 81 81 81 81 81 80 79 78 78 77 77 78 79 79 80 80 81 81 80 79 77 76 75 74 73 73 72 72
79 79 79 79 79 79 80 80 80 81 81 82 82 82 82 82 82 83 83 83 82 82 81 80 78 79 80 80 81 81 82 82 82 81 79 78 76 75 75 74 73 74
78 78 78 78 79 79 79 79 79 79 80 80 81 81 82 82 82 82 83 83 84 84 84 83 82 81 82 82 82 82 82 83 83 83 82 80 79 78 78 76 75 74
76 77 78 78 78 79 80 80 80 80 80 80 80 81 82 84 85 85 85 85 85 86 86 87 86 85 85 85 85 85 85 85 85 85 84 83 82 82 81 79 78 76
74 74 75 76 77 78 78 79 80 81 81 80 80 81 82 84 85 86 87 87 87 87 87 87 88 88 88 89 89 89 89 88 88 87 86 85 85 84 82 81 80 78
Wind_Direction
270 271 272 272 273 273 272 272 272 272 272 272 271 272 274 275 276 278 280 282 283 285 287 287 289 290 291 292 293 293 294 294 293 291 290 290 290 288 288 287 286 287
270 270 271 271 272 272 272 272 271 271 271 270 270 271 271 272 273 275 276 278 280 282 283 285 287 288 289 290 291 291 292 292 291 291 290 291 291 290 290 289 287 287
270 270 270 270 270 270 271 271 271 271 270 269 269 269 270 271 272 272 273 275 276 278 280 282 283 285 286 287 287 288 288 289 289 288 289 290 290 291 291 290 290 290
270 270 270 270 269 269 269 270 270 270 270 270 269 269 270 270 271 271 272 272 273 275 276 278 279 281 282 283 283 284 285 286 286 286 287 288 289 290 291 292 292 292
270 270 270 270 269 269 269 269 269 269 269 269 269 269 269 269 270 270 270 270 271 272 274 275 276 277 278 279 280 281 282 283 284 284 285 286 287 289 290 291 292 292
270 270 270 270 270 269 269 269 269 268 268 268 268 268 269 269 269 268 268 269 269 270 272 273 275 276 277 278 278 279 280 281 282 283 284 285 286 286 287 288 290 290
270 270 270 270 270 270 270 270 269 269 269 269 268 269 269 269 269 269 268 268 269 270 271 273 274 276 277 277 278 279 280 281 281 282 283 284 284 285 286 287 289 289
270 270 270 270 270 271 271 271 270 270 270 270 270 269 269 269 269 269 269 269 269 270 271 273 274 275 276 277 278 278 279 280 281 281 282 283 284 285 286 287 288 289
269 269 269 270 270 270 270 270 270 270 270 270 270 269 269 269 269 269 269 270 270 271 272 273 274 275 276 276 277 278 278 279 280 281 282 282 283 284 286 287 288 289
268 268 268 269 269 269 269 269 270 270 270 270 270 269 269 269 269 270 270 270 271 272 273 273 274 275 276 276 277 278 278 279 279 280 281 282 283 284 285 286 286 287
267 267 267 267 268 268 269 269 269 270 270 270 270 270 270 270 271 271 271 271 272 272 273 274 275 275 276 277 277 278 278 279 279 279 280 280 281 282 283 283 284 284
267 267 267 267 267 268 268 269 270 270 270 271 271 271 272 272 272 271 271 271 272 272 273 274 275 275 276 277 278 278 278 278 278 278 278 278 279 279 280 281 282 283
267 267 267 267 268 268 269 270 270 271 272 272 272 272 272 272 272 272 272 272 272 272 273 274 275 276 277 278 278 278 278 277 277 277 277 278 278 279 280 281 282 284
266 266 267 267 267 268 268 269 270 271 273 274 274 273 273 272 272 272 272 272 272 272 273 274 275 276 277 278 278 277 277 276 276 277 277 278 278 279 280 281 282 283
267 268 269 269 269 269 269 269 269 270 272 273 274 275 274 274 273 273 273 273 273 273 273 273 274 275 275 276 276 276 276 277 277 277 278 278 278 279 280 281 282 282
269 270 270 270 271 271 271 271 271 270 271 272 272 273 273 273 273 273 273 273 273 273 273 273 273 274 275 275 275 275 276 276 277 278 278 279 279 279 280 280 282 283
269 270 271 271 272 272 272 272 272 271 271 270 271 271 272 272 272 273 273 273 273 273 272 272 272 273 274 274 274 275 275 276 276 277 278 279 279 280 280 281 282 283
268 269 270 271 272 272 272 272 273 273 272 272 271 272 272 273 273 273 273 273 273 273 273 273 273 273 273 273 273 274 274 275 276 276 277 278 279 280 280 281 281 282
266 267 269 270 270 271 271 271 272 273 274 274 274 274 274 274 274 274 273 273 274 274 274 274 274 274 273 273 273 273 273 274 274 275 276 277 277 278 279 280 280 281
266 266 267 268 269 269 270 271 271 272 273 274 275 275 275 275 275 275 274 274 274 274 274 274 274 273 273 273 273 273 273 272 273 273 273 274 275 275 276 277 278 279
265 265 266 267 268 269 269 269 270 271 271 272 273 274 275 275 275 275 275 274 274 274 274 274 274 273 273 273 273 273 273 273 273 272 271 271 271 272 273 274 276 277
264 264 265 266 267 268 268 268 268 268 269 269 270 271 272 273 274 274 275 275 274 274 274 274 274 274 274 274 274 274 275 275 274 273 272 271 270 270 271 273 274 275
265 264 264 264 265 266 267 268 268 268 268 268 268 269 269 270 270 271 272 273 274 274 274 273 273 273 274 274 275 275 276 276 276 275 274 274 273 273 272 273 274 274
267 267 266 265 265 265 266 266 267 267 268 268 268 267 267 267 267 268 269 270 272 273 273 274 273 273 273 274 275 275 276 276 276 277 276 276 276 276 276 275 275 275
270 270 269 268 267 267 267 267 267 267 267 267 266 266 265 265 265 266 266 267 268 269 271 272 272 273 273 273 274 275 275 275 276 276 277 277 277 277 276 276 275 275
271 271 270 269 269 268 268 268 267 268 268 267 266 264 264 263 263 264 264 265 266 267 268 269 269 270 271 271 272 273 273 274 274 275 275 275 275 275 276 276 276 276